Other Public Products
Issued by NWS Grand Forks, ND

Home | Current Version | Previous Version | Text Only | Print | Product List | Glossary Off
Versions: 1 2 3 4 5 6 7 8 9 10 11 12 13 14 15 16 17 18 19 20 21 22 23 24 25 26 27 28 29 30 31 32 33 34 35 36 37 38 39 40 41 42 43 44 45 46 47 48 49 50

000
FPUS83 KFGF 181931
OPUFGF
PRAIRIE TO PINES WEATHER ROUNDUP
NATIONAL WEATHER SERVICE EASTERN NORTH DAKOTA/GRAND FORKS ND
100 PM CST THU DEC 18 2014

 **SATELLITE DATA USED TO AUGMENT SKY COVER AT AUTOMATED STATIONS**
 *****  WEATHER ACROSS EASTERN NORTH DAKOTA  *****

CITY           SKY/WX    TMP DP  RH WIND       PRES   REMARKS
GRAND FORKS    CLOUDY    18  13  80 S10       30.20F WCI   6
GRAND FORKS AF CLOUDY    17  16  98 S8        30.19F WCI   6
GRAND CITY NWS NOT AVBL
BUXTON           N/A     17  14  89 SE9         N/A  WCI   5
DEVILS LAKE    CLOUDY    19   9  63 S10       30.07F WCI   8
FARGO          CLOUDY    18  12  77 SE13      30.21F WCI   5
WAHPETON ARPT  CLOUDY    18  14  86 SE7       30.22F WCI   8
$$

 *****  WEATHER ACROSS CENTRAL AND WESTERN NORTH DAKOTA  *****

CITY           SKY/WX    TMP DP  RH WIND       PRES   REMARKS
JAMESTOWN      CLOUDY    20  15  81 S9        30.10F WCI   9
BISMARCK       CLOUDY    22  20  92 SE8       30.05F WCI  12
MINOT          CLOUDY    22  17  81 S9        30.01F HAZE    WCI  12
MINOT AFB      CLOUDY    21  21 100 S9        30.00F WCI  11
GARRISON         N/A     22  19  89 S9        30.00F WCI  12
WILLISTON      CLOUDY    25  21  85 S6        29.97F WCI  18
DICKINSON      CLOUDY    30  25  81 W7        29.94F WCI  23
HETTINGER      CLOUDY    29  27  92 S6        29.97F WCI  23
$$

 *****  OTHER OBSERVATIONS NORTHEAST NORTH DAKOTA  *****

CITY           SKY/WX    TMP DP  RH WIND       PRES   REMARKS
WALHALLA         N/A     18  16  93 SE10      30.15F WCI   6
LANGDON        CLOUDY    21  16  79 S16       30.08F WCI   7
CAVALIER       MOCLDY    18  14  86 S10       30.17F WCI   6
GRAFTON        NOT AVBL
CANDO          CLOUDY    18  16  93 S10       30.09F WCI   6
FORT TOTTEN      N/A     18  14  85 S8        29.95S WCI   8
ROLLA          CLOUDY    16  16 100 S12       30.05F WCI   3
RUGBY          CLOUDY    18  18 100 S9        30.05F FOG     WCI   6
 ***** THE ABOVE OBSERVATIONS ARE NON NWS ARE NOT QUALITY
        CONTROLLED AND MAY MIS-REPORT RAIN FOR SNOW...
$$

 *****  OTHER OBSERVATIONS SOUTHEAST NORTH DAKOTA *****

CITY           SKY/WX    TMP DP  RH WIND       PRES   REMARKS
COOPERSTOWN    NOT AVBL
VALLEY CITY    CLOUDY    19  19 100 S10       30.13F WCI   8
OAKES            N/A     23  19  86 S8        30.14F WCI  14
GWINNER        CLOUDY    25  21  86 MISG      30.17F
BUFFALO        NOT AVBL
WYNDMERE       NOT AVBL
 ***** THE ABOVE OBSERVATIONS ARE NON NWS ARE NOT QUALITY
       CONTROLLED AND MAY MIS-REPORT RAIN FOR SNOW...
$$

  *****  WEATHER ACROSS NORTHERN MINNESOTA  *****

CITY           SKY/WX    TMP DP  RH WIND       PRES   REMARKS
FLAG ISLAND    SUNNY     12   9  85 SE3       30.22S
WARROAD        SUNNY     21  16  79 S6        30.21F WCI  14
ROSEAU         SUNNY     23  16  74 S12       30.20F WCI  12
HALLOCK          N/A     19  16  86 S15       30.19F WCI   5
THF RVR FALLS  PTSUNNY   19  16  86 S12       30.20F WCI   7
HALSTAD          N/A     19  12  76 SE14        N/A  WCI   5
FOSSTON        MOSUNNY   18  12  79 S8        30.20F WCI   7
BAUDETTE       SUNNY     21  13  71 S8        30.22F WCI  11
WASKISH        LGT SNOW  18  14  86 CALM      30.23F
CROOKSTON      PTSUNNY   18  16  93 S13       30.22F WCI   4
$$
  *****  WEATHER ACROSS CENTRAL AND WEST MINNESOTA  *****

CITY           SKY/WX    TMP DP  RH WIND       PRES   REMARKS
BEMIDJI        FLURRIES  17  13  84 S9        30.21F WCI   6
PARK RAPIDS    CLOUDY    19  13  77 SE13      30.20F WCI   6
WADENA         CLOUDY    18  12  79 NW9       30.21F WCI   6
DETROIT LAKES  MOSUNNY   19  16  86 S10       30.21F WCI   8
MOORHEAD       CLOUDY    19  18  93 SE14      30.21F WCI   6
FERGUS FALLS   CLOUDY    18  12  79 SE10      30.25F WCI   6
ELBOW LAKE     CLOUDY    17  13  86 SE12      30.21F WCI   4
MORRIS MN      MOSUNNY   18  16  93 SE10      30.21F WCI   6
STAPLES        FLURRIES  18  12  79 S7        30.23F WCI   8
WHEATON        CLOUDY    16  12  86 SE14      30.22F WCI   1
$$
  *****  WEATHER ELSEWHERE ACROSS MINNESOTA  *****

CITY           SKY/WX    TMP DP  RH WIND       PRES   REMARKS
DULUTH         CLOUDY    25  18  74 SE14      30.22F WCI  13
INTRNTL FALLS  CLOUDY    19  13  77 S6        30.25F WCI  11
ELY            CLOUDY    21  18  86 SE6       30.23F WCI  14
CLOQUET        CLOUDY    25  18  74 E9        30.22F WCI  15
BRAINERD       CLOUDY    20  15  81 SE7       30.24F WCI  11
HIBBING        CLOUDY    22  16  78 CALM      30.23F
ALEXANDRIA     MOSUNNY   17  12  80 S10       30.22F WCI   5
SAINT CLOUD    CLOUDY    21  15  78 SE3       30.25F HAZE
MINNEAPOLIS    FLURRIES  20  16  84 CALM      30.28F
$$

  *****  WEATHER ACROSS SOUTH DAKOTA  *****

CITY           SKY/WX    TMP DP  RH WIND       PRES   REMARKS
SIOUX FALLS    CLOUDY    24  21  88 S7        30.18F WCI  16
BROOKINGS      NOT AVBL
WATERTOWN      CLOUDY    22  17  81 S9        30.14F WCI  12
HURON          CLOUDY    25  20  81 S10       30.15F WCI  15
SISSETON         N/A     19  15  84 S10       30.18  WCI   7
ABERDEEN       CLOUDY    24  19  81 S12       30.15F WCI  13
MITCHELL       CLOUDY    26  22  84 S8        30.16F WCI  18
PIERRE         CLOUDY    26  23  88 SE6       30.08F WCI  19
MOBRIDGE       CLOUDY    25  23  92 S10       30.04F FOG     WCI  15
RAPID CITY     SUNNY     36  27  69 E3        29.98F
$$

  *****  SOME WEATHER IN NEARBY STATES *****

CITY           SKY/WX    TMP DP  RH WIND       PRES   REMARKS
GLASGOW MT     CLOUDY    27  24  89 SW5       29.92F FOG     WCI  22
GREAT FALLS MT CLOUDY    38  25  59 SW14      29.91S
CHEYENNE WY    SUNNY     40  13  33 W16G23    30.01F
SCOTTSBLUFF NE MOSUNNY   17  13  84 NW3       30.06F FOG
OMAHA NE       FLURRIES  30  25  81 S6        30.23F WCI  24
DES MOINES IA  FLURRIES  30  20  66 CALM      30.24F
DAVENPORT IA   CLOUDY    25  17  72 W5        30.26F WCI  19
CHICAGO IL     CLOUDY    27  18  69 NW7       30.22F WCI  19
EAU CLAIRE WI  CLOUDY    24  18  77 CALM      30.26F
LA CROSSE WI   CLOUDY    25  18  74 SW5       30.28F WCI  19
$$

  *****  SOME NATIONAL WEATHER *****

CITY           SKY/WX    TMP DP  RH WIND       PRES   REMARKS
LA GUARDIA NY  PTSUNNY   41  24  51 W15G29    29.93F
RALEIGH NC     PTSUNNY   50  23  34 W6        30.11F
ATLANTA GA     PTSUNNY   53  31  42 W5        30.11F
NEW ORLEANS LA CLOUDY    67  53  61 SE12      30.11F
OKLAHOMA CITY  CLOUDY    43  38  82 CALM      30.14F FOG
ALBUQUERQUE NM PTSUNNY   40  30  67 CALM      30.13F
SALT LAKE CITY MOSUNNY   40  33  76 S7        30.16S
LOS ANGELES CA PTSUNNY   58  47  66 CALM      30.20S
BOISE ID       CLOUDY    45  32  60 SE10      30.10F
SEATTLE WA     CLOUDY    47  39  74 E7        29.90F
$$

*** WEATHER ACROSS MANITOBA...SASKATCHEWAN AND ONTARIO ***
                ***ONTARIO***

CITY           SKY/WX    TMP DP  RH WIND       PRES   REMARKS
GERALDTON      SUNNY     18   3  53 NW7       30.26S WCI   8
THUNDER BAY    MOSUNNY   16   3  57 SW7       30.32  WCI   6
SIOUX LOOKOUT  MOSUNNY    9   1  72 S3        30.26F
TORONTO        CLOUDY    30  25  80 W14       30.06  WCI  20
BIG TROUT LK   SUNNY     10   7  85 SW5       30.19F WCI   2
PICKLE LAKE    MOSUNNY   14   3  62 SW5       30.23F WCI   6
DRYDEN         FLURRIES  10   9  92 S3        30.25F
KENORA         PTSUNNY   16   9  73 S8        30.20F WCI   5
$$
                *** MANITOBA***

CITY           SKY/WX    TMP DP  RH WIND       PRES   REMARKS
BRANDON        PTSUNNY    7   5  92 E3        30.09F
DAUPHIN        SUNNY     10   9  92 SE3       30.06F
ISLAND LAKE    SUNNY     14   9  79 S6        30.14F WCI   5
PILOT MOUND      N/A     18  16  93 S12         N/A  WCI   5
THE PAS        LGT SNOW  12  10  92 S5        30.00F WCI   4
THOMPSON       FLURRIES   9   3  78 SW8       30.01  WCI  -4
WINNIPEG       CLOUDY    18  10  73 S12       30.19F WCI   5
LYNN LAKE      FLURRIES  12  10  92 SW8       29.90F WCI   1
CHURCHILL      PTCLDY     3   0  85 W3        30.00
GILLAM         PTCLDY     7   1  78 SW10      30.06  WCI  -8
$$
                ***SASKATCHEWAN***

CITY           SKY/WX    TMP DP  RH WIND       PRES   REMARKS
ESTEVAN        FLURRIES  23  19  86 S8        29.97F WCI  14
KINDERSLEY     FOG       12  10  92 SW3       29.85  VSB 1/4
LLOYDMINSTER   FOG       18  16  93 SW5       29.84  VSB 1/2 WCI  11
PRINCE ALBERT  CLOUDY    19  18  93 W6        29.91  FOG     WCI  11
REGINA         CLOUDY    23  23 100 S10       29.92F FOG     WCI  12
YORKTON        FLURRIES  18  16  93 S10       29.98S WCI   6


USA.gov is the U.S. government's official web portal to all federal, state and local government web resources and services.